Time,TemperatureF,DewpointF,PressureIn,WindDirection,WindDirectionDegrees,WindSpeedMPH,WindSpeedGustMPH,Humidity,HourlyPrecipIn,Conditions,Clouds,dailyrainin,SoftwareType,DateUTC
2013-10-24 00:01:00,36.0,35.0,29.83,West,270,2.0,4.0,94,0.00,,,0.00,Rainwise IP-100,2013-10-24 04:01:00,
2013-10-24 00:02:00,36.0,35.0,29.83,WSW,247,3.0,4.0,94,0.00,,,0.00,Rainwise IP-100,2013-10-24 04:02:00,
2013-10-24 00:07:00,36.0,32.0,29.83,SW,225,0.0,7.0,88,0.00,,,0.00,Rainwise IP-100,2013-10-24 04:07:00,
2013-10-24 00:12:00,37.0,33.0,29.82,West,270,3.0,7.0,85,0.00,,,0.00,Rainwise IP-100,2013-10-24 04:12:00,
2013-10-24 00:17:00,37.0,33.0,29.82,West,270,0.0,4.0,87,0.00,,,0.00,Rainwise IP-100,2013-10-24 04:17:00,
2013-10-24 00:22:00,38.0,33.0,29.82,NW,315,6.0,8.0,81,0.00,,,0.00,Rainwise IP-100,2013-10-24 04:22:00,
2013-10-24 00:27:00,37.0,33.0,29.82,West,270,1.0,6.0,87,0.00,,,0.00,Rainwise IP-100,2013-10-24 04:27:00,
2013-10-24 00:32:00,37.0,32.0,29.83,WSW,247,4.0,7.0,84,0.00,,,0.00,Rainwise IP-100,2013-10-24 04:32:00,
2013-10-24 00:37:00,37.0,32.0,29.83,WSW,247,6.0,8.0,81,0.00,,,0.00,Rainwise IP-100,2013-10-24 04:37:00,
2013-10-24 00:42:00,38.0,33.0,29.82,SW,225,7.0,8.0,83,0.00,,,0.00,Rainwise IP-100,2013-10-24 04:42:00,
2013-10-24 00:47:00,37.0,33.0,29.82,South,180,5.0,9.0,86,0.00,,,0.00,Rainwise IP-100,2013-10-24 04:47:00,
2013-10-24 00:52:00,37.0,33.0,29.83,ESE,112,3.0,6.0,86,0.00,,,0.00,Rainwise IP-100,2013-10-24 04:52:00,
2013-10-24 00:57:00,37.0,33.0,29.83,South,180,6.0,6.0,86,0.00,,,0.00,Rainwise IP-100,2013-10-24 04:57:00,
2013-10-24 01:02:00,37.0,32.0,29.83,South,180,0.0,6.0,84,0.00,,,0.00,Rainwise IP-100,2013-10-24 05:02:00,
2013-10-24 01:07:00,37.0,32.0,29.83,NNW,337,0.0,3.0,82,0.00,,,0.00,Rainwise IP-100,2013-10-24 05:07:00,
2013-10-24 01:12:00,36.0,32.0,29.83,West,270,0.0,0.0,85,0.00,,,0.00,Rainwise IP-100,2013-10-24 05:12:00,
2013-10-24 01:17:00,37.0,32.0,29.83,SW,225,0.0,0.0,83,0.00,,,0.00,Rainwise IP-100,2013-10-24 05:17:00,
2013-10-24 01:22:00,37.0,32.0,29.82,SSE,157,2.0,3.0,83,0.00,,,0.00,Rainwise IP-100,2013-10-24 05:22:00,
2013-10-24 01:27:00,37.0,32.0,29.82,SE,135,5.0,5.0,83,0.00,,,0.00,Rainwise IP-100,2013-10-24 05:27:00,
2013-10-24 01:32:00,36.0,32.0,29.83,SSE,157,1.0,5.0,86,0.00,,,0.00,Rainwise IP-100,2013-10-24 05:32:00,
2013-10-24 01:37:00,36.0,32.0,29.83,SW,225,5.0,6.0,87,0.00,,,0.00,Rainwise IP-100,2013-10-24 05:37:00,
2013-10-24 01:42:00,36.0,32.0,29.83,SSW,202,5.0,7.0,84,0.00,,,0.00,Rainwise IP-100,2013-10-24 05:42:00,
2013-10-24 01:47:00,36.0,32.0,29.83,SW,225,5.0,6.0,86,0.00,,,0.00,Rainwise IP-100,2013-10-24 05:47:00,
2013-10-24 01:52:00,37.0,31.0,29.83,WNW,292,10.0,13.0,79,0.00,,,0.00,Rainwise IP-100,2013-10-24 05:52:00,
2013-10-24 01:57:00,37.0,31.0,29.83,West,270,5.0,12.0,79,0.00,,,0.00,Rainwise IP-100,2013-10-24 05:57:00,
2013-10-24 02:02:00,37.0,31.0,29.83,North,360,3.0,6.0,79,0.00,,,0.00,Rainwise IP-100,2013-10-24 06:02:00,
2013-10-24 02:07:00,37.0,32.0,29.83,NNW,337,6.0,14.0,80,0.00,,,0.00,Rainwise IP-100,2013-10-24 06:07:00,
2013-10-24 02:12:00,37.0,32.0,29.84,NW,315,7.0,12.0,82,0.00,,,0.00,Rainwise IP-100,2013-10-24 06:12:00,
2013-10-24 02:17:00,37.0,32.0,29.84,NNW,337,9.0,12.0,83,0.00,,,0.00,Rainwise IP-100,2013-10-24 06:17:00,
2013-10-24 02:22:00,37.0,32.0,29.84,North,360,10.0,12.0,82,0.00,,,0.00,Rainwise IP-100,2013-10-24 06:22:00,
2013-10-24 02:27:00,37.0,32.0,29.84,NW,315,7.0,14.0,80,0.00,,,0.00,Rainwise IP-100,2013-10-24 06:27:00,
2013-10-24 02:32:00,37.0,32.0,29.84,NW,315,6.0,8.0,81,0.00,,,0.00,Rainwise IP-100,2013-10-24 06:32:00,
2013-10-24 02:37:00,37.0,31.0,29.84,NNW,337,7.0,11.0,78,0.00,,,0.00,Rainwise IP-100,2013-10-24 06:37:00,
2013-10-24 02:42:00,37.0,31.0,29.84,North,360,6.0,7.0,79,0.00,,,0.00,Rainwise IP-100,2013-10-24 06:42:00,
2013-10-24 02:47:00,36.0,31.0,29.84,NNE,22,3.0,7.0,79,0.00,,,0.00,Rainwise IP-100,2013-10-24 06:47:00,
2013-10-24 02:52:00,36.0,29.0,29.84,NW,315,9.0,12.0,77,0.00,,,0.00,Rainwise IP-100,2013-10-24 06:52:00,
2013-10-24 02:57:00,36.0,31.0,29.84,NNW,337,7.0,10.0,79,0.00,,,0.00,Rainwise IP-100,2013-10-24 06:57:00,
2013-10-24 03:02:00,36.0,29.0,29.84,NNW,337,11.0,12.0,78,0.00,,,0.00,Rainwise IP-100,2013-10-24 07:02:00,
2013-10-24 03:07:00,36.0,29.0,29.84,North,360,7.0,12.0,78,0.00,,,0.00,Rainwise IP-100,2013-10-24 07:07:00,
2013-10-24 03:12:00,36.0,29.0,29.84,NW,315,8.0,10.0,78,0.00,,,0.00,Rainwise IP-100,2013-10-24 07:12:00,
2013-10-24 03:17:00,35.0,29.0,29.84,NW,315,6.0,9.0,78,0.00,,,0.00,Rainwise IP-100,2013-10-24 07:17:00,
2013-10-24 03:22:00,35.0,29.0,29.85,West,270,5.0,7.0,79,0.00,,,0.00,Rainwise IP-100,2013-10-24 07:22:00,
2013-10-24 03:27:00,35.0,28.0,29.85,North,360,6.0,9.0,77,0.00,,,0.00,Rainwise IP-100,2013-10-24 07:27:00,
2013-10-24 03:32:00,35.0,26.0,29.84,NNW,337,7.0,12.0,71,0.00,,,0.00,Rainwise IP-100,2013-10-24 07:32:00,
2013-10-24 03:37:00,35.0,26.0,29.84,North,360,6.0,10.0,70,0.00,,,0.00,Rainwise IP-100,2013-10-24 07:37:00,
2013-10-24 03:42:00,34.0,28.0,29.84,ENE,67,3.0,6.0,73,0.00,,,0.00,Rainwise IP-100,2013-10-24 07:42:00,
2013-10-24 03:47:00,34.0,26.0,29.84,NNE,22,0.0,7.0,72,0.00,,,0.00,Rainwise IP-100,2013-10-24 07:47:00,
2013-10-24 03:52:00,33.0,26.0,29.85,NNE,22,0.0,4.0,74,0.00,,,0.00,Rainwise IP-100,2013-10-24 07:52:00,
2013-10-24 03:57:00,33.0,26.0,29.85,NNE,22,0.0,2.0,76,0.00,,,0.00,Rainwise IP-100,2013-10-24 07:57:00,
2013-10-24 04:02:00,33.0,26.0,29.86,ESE,112,2.0,3.0,75,0.00,,,0.00,Rainwise IP-100,2013-10-24 08:02:00,
2013-10-24 04:07:00,33.0,26.0,29.86,North,360,2.0,6.0,74,0.00,,,0.00,Rainwise IP-100,2013-10-24 08:07:00,
2013-10-24 04:12:00,33.0,26.0,29.86,East,90,1.0,5.0,72,0.00,,,0.00,Rainwise IP-100,2013-10-24 08:12:00,
2013-10-24 04:17:00,33.0,24.0,29.86,ESE,112,4.0,4.0,70,0.00,,,0.00,Rainwise IP-100,2013-10-24 08:17:00,
2013-10-24 04:22:00,34.0,26.0,29.85,ESE,112,4.0,6.0,69,0.00,,,0.00,Rainwise IP-100,2013-10-24 08:22:00,
2013-10-24 04:27:00,33.0,24.0,29.85,ESE,112,4.0,6.0,69,0.00,,,0.00,Rainwise IP-100,2013-10-24 08:27:00,
2013-10-24 04:32:00,33.0,26.0,29.86,ESE,112,4.0,5.0,73,0.00,,,0.00,Rainwise IP-100,2013-10-24 08:32:00,
2013-10-24 04:37:00,33.0,24.0,29.86,SSE,157,3.0,6.0,70,0.00,,,0.00,Rainwise IP-100,2013-10-24 08:37:00,
2013-10-24 04:42:00,33.0,26.0,29.86,SSW,202,2.0,5.0,72,0.00,,,0.00,Rainwise IP-100,2013-10-24 08:42:00,
2013-10-24 04:47:00,33.0,26.0,29.86,South,180,4.0,6.0,72,0.00,,,0.00,Rainwise IP-100,2013-10-24 08:47:00,
2013-10-24 04:52:00,32.0,24.0,29.86,SW,225,0.0,6.0,72,0.00,,,0.00,Rainwise IP-100,2013-10-24 08:52:00,
2013-10-24 04:57:00,32.0,24.0,29.86,SE,135,3.0,6.0,72,0.00,,,0.00,Rainwise IP-100,2013-10-24 08:57:00,
2013-10-24 05:02:00,33.0,24.0,29.87,WNW,292,8.0,10.0,69,0.00,,,0.00,Rainwise IP-100,2013-10-24 09:02:00,
2013-10-24 05:07:00,33.0,24.0,29.87,SSW,202,0.0,11.0,68,0.00,,,0.00,Rainwise IP-100,2013-10-24 09:07:00,
2013-10-24 05:12:00,33.0,24.0,29.86,SW,225,3.0,7.0,68,0.00,,,0.00,Rainwise IP-100,2013-10-24 09:12:00,
2013-10-24 05:17:00,33.0,24.0,29.86,NW,315,4.0,7.0,66,0.00,,,0.00,Rainwise IP-100,2013-10-24 09:17:00,
2013-10-24 05:22:00,34.0,24.0,29.86,NW,315,3.0,8.0,65,0.00,,,0.00,Rainwise IP-100,2013-10-24 09:22:00,
2013-10-24 05:27:00,34.0,24.0,29.86,WSW,247,7.0,7.0,65,0.00,,,0.00,Rainwise IP-100,2013-10-24 09:27:00,
2013-10-24 05:32:00,34.0,24.0,29.86,WNW,292,6.0,15.0,65,0.00,,,0.00,Rainwise IP-100,2013-10-24 09:32:00,
2013-10-24 05:37:00,35.0,24.0,29.86,WNW,292,3.0,6.0,63,0.00,,,0.00,Rainwise IP-100,2013-10-24 09:37:00,
2013-10-24 05:42:00,34.0,24.0,29.85,NW,315,0.0,6.0,64,0.00,,,0.00,Rainwise IP-100,2013-10-24 09:42:00,
2013-10-24 05:47:00,32.0,26.0,29.85,SSE,157,6.0,9.0,75,0.00,,,0.00,Rainwise IP-100,2013-10-24 09:47:00,
2013-10-24 05:52:00,32.0,26.0,29.88,SSE,157,6.0,8.0,76,0.00,,,0.00,Rainwise IP-100,2013-10-24 09:52:00,
2013-10-24 05:57:00,32.0,24.0,29.88,South,180,1.0,10.0,70,0.00,,,0.00,Rainwise IP-100,2013-10-24 09:57:00,
2013-10-24 06:02:00,32.0,26.0,29.88,South,180,8.0,8.0,78,0.00,,,0.00,Rainwise IP-100,2013-10-24 10:02:00,
2013-10-24 06:07:00,31.0,24.0,29.88,South,180,8.0,12.0,78,0.00,,,0.00,Rainwise IP-100,2013-10-24 10:07:00,
2013-10-24 06:12:00,31.0,24.0,29.88,South,180,9.0,12.0,77,0.00,,,0.00,Rainwise IP-100,2013-10-24 10:12:00,
2013-10-24 06:17:00,32.0,26.0,29.88,South,180,12.0,13.0,75,0.00,,,0.00,Rainwise IP-100,2013-10-24 10:17:00,
2013-10-24 06:22:00,32.0,26.0,29.87,SSE,157,6.0,13.0,76,0.00,,,0.00,Rainwise IP-100,2013-10-24 10:22:00,
2013-10-24 06:27:00,32.0,26.0,29.87,SSW,202,6.0,10.0,75,0.00,,,0.00,Rainwise IP-100,2013-10-24 10:27:00,
2013-10-24 06:32:00,33.0,26.0,29.86,South,180,8.0,10.0,74,0.00,,,0.00,Rainwise IP-100,2013-10-24 10:32:00,
2013-10-24 06:37:00,33.0,24.0,29.86,South,180,7.0,9.0,70,0.00,,,0.00,Rainwise IP-100,2013-10-24 10:37:00,
2013-10-24 06:42:00,33.0,26.0,29.87,SSW,202,4.0,9.0,73,0.00,,,0.00,Rainwise IP-100,2013-10-24 10:42:00,
2013-10-24 06:47:00,33.0,26.0,29.87,SW,225,6.0,8.0,72,0.00,,,0.00,Rainwise IP-100,2013-10-24 10:47:00,
2013-10-24 06:52:00,33.0,26.0,29.87,South,180,9.0,12.0,73,0.00,,,0.00,Rainwise IP-100,2013-10-24 10:52:00,
2013-10-24 06:57:00,33.0,26.0,29.87,SW,225,7.0,14.0,75,0.00,,,0.00,Rainwise IP-100,2013-10-24 10:57:00,
2013-10-24 07:02:00,33.0,26.0,29.88,SW,225,7.0,10.0,75,0.00,,,0.00,Rainwise IP-100,2013-10-24 11:02:00,
2013-10-24 07:07:00,33.0,26.0,29.88,SW,225,7.0,15.0,75,0.00,,,0.00,Rainwise IP-100,2013-10-24 11:07:00,
2013-10-24 07:12:00,33.0,26.0,29.87,SE,135,9.0,15.0,73,0.00,,,0.00,Rainwise IP-100,2013-10-24 11:12:00,
2013-10-24 07:17:00,33.0,26.0,29.87,SSW,202,7.0,10.0,74,0.00,,,0.00,Rainwise IP-100,2013-10-24 11:17:00,
2013-10-24 07:22:00,33.0,26.0,29.88,South,180,10.0,10.0,76,0.00,,,0.00,Rainwise IP-100,2013-10-24 11:22:00,
2013-10-24 07:27:00,33.0,28.0,29.88,WSW,247,13.0,13.0,77,0.00,,,0.00,Rainwise IP-100,2013-10-24 11:27:00,
2013-10-24 07:32:00,33.0,26.0,29.87,SW,225,1.0,13.0,76,0.00,,,0.00,Rainwise IP-100,2013-10-24 11:32:00,
2013-10-24 07:37:00,33.0,26.0,29.87,SSW,202,8.0,14.0,76,0.00,,,0.00,Rainwise IP-100,2013-10-24 11:37:00,
2013-10-24 07:42:00,33.0,28.0,29.88,South,180,10.0,13.0,77,0.00,,,0.00,Rainwise IP-100,2013-10-24 11:42:00,
2013-10-24 07:47:00,34.0,28.0,29.88,SSW,202,8.0,15.0,76,0.00,,,0.00,Rainwise IP-100,2013-10-24 11:47:00,
2013-10-24 07:52:00,34.0,28.0,29.87,SW,225,12.0,16.0,76,0.00,,,0.00,Rainwise IP-100,2013-10-24 11:52:00,
2013-10-24 07:57:00,34.0,28.0,29.87,SSW,202,7.0,13.0,76,0.00,,,0.00,Rainwise IP-100,2013-10-24 11:57:00,
2013-10-24 08:02:00,34.0,28.0,29.88,SW,225,8.0,13.0,77,0.00,,,0.00,Rainwise IP-100,2013-10-24 12:02:00,
2013-10-24 08:07:00,34.0,28.0,29.88,SSW,202,9.0,12.0,77,0.00,,,0.00,Rainwise IP-100,2013-10-24 12:07:00,
2013-10-24 08:12:00,35.0,28.0,29.87,WSW,247,9.0,18.0,76,0.00,,,0.00,Rainwise IP-100,2013-10-24 12:12:00,
2013-10-24 08:17:00,35.0,28.0,29.87,SSW,202,9.0,12.0,76,0.00,,,0.00,Rainwise IP-100,2013-10-24 12:17:00,
2013-10-24 08:22:00,36.0,29.0,29.87,SW,225,10.0,17.0,75,0.00,,,0.00,Rainwise IP-100,2013-10-24 12:22:00,
2013-10-24 08:27:00,36.0,29.0,29.87,SSW,202,7.0,17.0,75,0.00,,,0.00,Rainwise IP-100,2013-10-24 12:27:00,
2013-10-24 08:32:00,36.0,29.0,29.88,SW,225,10.0,14.0,75,0.00,,,0.00,Rainwise IP-100,2013-10-24 12:32:00,
2013-10-24 08:37:00,36.0,29.0,29.88,SSW,202,10.0,19.0,75,0.00,,,0.00,Rainwise IP-100,2013-10-24 12:37:00,
2013-10-24 08:42:00,36.0,29.0,29.87,SW,225,7.0,17.0,76,0.00,,,0.00,Rainwise IP-100,2013-10-24 12:42:00,
2013-10-24 08:47:00,36.0,29.0,29.87,WSW,247,11.0,19.0,76,0.00,,,0.00,Rainwise IP-100,2013-10-24 12:47:00,
2013-10-24 08:52:00,36.0,29.0,29.88,WSW,247,15.0,23.0,74,0.00,,,0.00,Rainwise IP-100,2013-10-24 12:52:00,
2013-10-24 08:57:00,36.0,29.0,29.88,SW,225,16.0,19.0,75,0.00,,,0.00,Rainwise IP-100,2013-10-24 12:57:00,
2013-10-24 09:02:00,37.0,29.0,29.87,WSW,247,12.0,23.0,73,0.00,,,0.00,Rainwise IP-100,2013-10-24 13:02:00,
2013-10-24 09:07:00,36.0,29.0,29.87,WSW,247,10.0,17.0,74,0.00,,,0.00,Rainwise IP-100,2013-10-24 13:07:00,
2013-10-24 09:12:00,36.0,29.0,29.88,West,270,14.0,17.0,76,0.00,,,0.00,Rainwise IP-100,2013-10-24 13:12:00,
2013-10-24 09:17:00,36.0,29.0,29.88,WSW,247,6.0,18.0,75,0.00,,,0.00,Rainwise IP-100,2013-10-24 13:17:00,
2013-10-24 09:22:00,37.0,31.0,29.87,WSW,247,9.0,21.0,75,0.00,,,0.00,Rainwise IP-100,2013-10-24 13:22:00,
2013-10-24 09:27:00,37.0,29.0,29.87,SW,225,13.0,15.0,74,0.00,,,0.00,Rainwise IP-100,2013-10-24 13:27:00,
2013-10-24 09:32:00,38.0,31.0,29.87,SW,225,16.0,17.0,73,0.00,,,0.00,Rainwise IP-100,2013-10-24 13:32:00,
2013-10-24 09:37:00,38.0,31.0,29.87,WSW,247,9.0,18.0,73,0.00,,,0.00,Rainwise IP-100,2013-10-24 13:37:00,
2013-10-24 09:42:00,38.0,31.0,29.87,WSW,247,9.0,20.0,75,0.00,,,0.00,Rainwise IP-100,2013-10-24 13:42:00,
2013-10-24 09:47:00,38.0,31.0,29.87,WSW,247,9.0,17.0,75,0.00,,,0.00,Rainwise IP-100,2013-10-24 13:47:00,
2013-10-24 09:52:00,39.0,32.0,29.87,SW,225,9.0,19.0,75,0.00,,,0.00,Rainwise IP-100,2013-10-24 13:52:00,
2013-10-24 09:57:00,38.0,31.0,29.87,WSW,247,14.0,22.0,75,0.00,,,0.00,Rainwise IP-100,2013-10-24 13:57:00,
2013-10-24 10:02:00,38.0,31.0,29.88,SW,225,6.0,20.0,76,0.00,,,0.00,Rainwise IP-100,2013-10-24 14:02:00,
2013-10-24 10:07:00,38.0,32.0,29.88,WSW,247,8.0,15.0,77,0.00,,,0.00,Rainwise IP-100,2013-10-24 14:07:00,
2013-10-24 10:12:00,39.0,32.0,29.87,SSW,202,7.0,20.0,74,0.00,,,0.00,Rainwise IP-100,2013-10-24 14:12:00,
2013-10-24 10:17:00,39.0,32.0,29.87,SW,225,11.0,19.0,75,0.00,,,0.00,Rainwise IP-100,2013-10-24 14:17:00,
2013-10-24 10:22:00,39.0,32.0,29.88,South,180,10.0,17.0,74,0.00,,,0.00,Rainwise IP-100,2013-10-24 14:22:00,
2013-10-24 10:27:00,39.0,32.0,29.88,SW,225,16.0,17.0,73,0.00,,,0.00,Rainwise IP-100,2013-10-24 14:27:00,
2013-10-24 10:32:00,38.0,31.0,29.88,WNW,292,14.0,21.0,73,0.00,,,0.00,Rainwise IP-100,2013-10-24 14:32:00,
2013-10-24 10:37:00,38.0,29.0,29.88,SW,225,13.0,24.0,71,0.00,,,0.00,Rainwise IP-100,2013-10-24 14:37:00,
2013-10-24 10:42:00,39.0,31.0,29.87,WSW,247,13.0,19.0,71,0.00,,,0.00,Rainwise IP-100,2013-10-24 14:42:00,
2013-10-24 10:47:00,39.0,31.0,29.87,West,270,12.0,22.0,69,0.00,,,0.00,Rainwise IP-100,2013-10-24 14:47:00,
2013-10-24 10:52:00,39.0,31.0,29.87,SW,225,15.0,19.0,70,0.00,,,0.00,Rainwise IP-100,2013-10-24 14:52:00,
2013-10-24 10:57:00,39.0,31.0,29.87,West,270,7.0,22.0,70,0.00,,,0.00,Rainwise IP-100,2013-10-24 14:57:00,
2013-10-24 11:02:00,39.0,31.0,29.88,West,270,10.0,23.0,71,0.00,,,0.00,Rainwise IP-100,2013-10-24 15:02:00,
2013-10-24 11:07:00,39.0,31.0,29.88,WSW,247,13.0,17.0,72,0.00,,,0.00,Rainwise IP-100,2013-10-24 15:07:00,
2013-10-24 11:12:00,39.0,31.0,29.88,West,270,9.0,20.0,70,0.00,,,0.00,Rainwise IP-100,2013-10-24 15:12:00,
2013-10-24 11:17:00,39.0,32.0,29.88,West,270,6.0,14.0,73,0.00,,,0.00,Rainwise IP-100,2013-10-24 15:17:00,
2013-10-24 11:22:00,39.0,32.0,29.88,SW,225,12.0,14.0,73,0.00,,,0.00,Rainwise IP-100,2013-10-24 15:22:00,
2013-10-24 11:27:00,39.0,31.0,29.88,SW,225,12.0,17.0,72,0.00,,,0.00,Rainwise IP-100,2013-10-24 15:27:00,
2013-10-24 11:32:00,40.0,32.0,29.86,WSW,247,10.0,20.0,71,0.00,,,0.00,Rainwise IP-100,2013-10-24 15:32:00,
2013-10-24 11:37:00,41.0,32.0,29.86,WSW,247,5.0,20.0,71,0.00,,,0.00,Rainwise IP-100,2013-10-24 15:37:00,
2013-10-24 11:42:00,41.0,32.0,29.86,WSW,247,17.0,22.0,68,0.00,,,0.00,Rainwise IP-100,2013-10-24 15:42:00,
2013-10-24 11:47:00,40.0,29.0,29.86,SW,225,19.0,23.0,65,0.00,,,0.00,Rainwise IP-100,2013-10-24 15:47:00,
2013-10-24 11:52:00,41.0,32.0,29.86,WSW,247,5.0,19.0,70,0.00,,,0.00,Rainwise IP-100,2013-10-24 15:52:00,
2013-10-24 11:57:00,41.0,31.0,29.86,SSW,202,10.0,21.0,65,0.00,,,0.00,Rainwise IP-100,2013-10-24 15:57:00,
2013-10-24 12:02:00,41.0,31.0,29.85,WSW,247,11.0,24.0,66,0.00,,,0.00,Rainwise IP-100,2013-10-24 16:02:00,
2013-10-24 12:07:00,41.0,29.0,29.85,West,270,15.0,20.0,62,0.00,,,0.00,Rainwise IP-100,2013-10-24 16:07:00,
2013-10-24 12:12:00,41.0,31.0,29.86,WSW,247,10.0,19.0,64,0.00,,,0.00,Rainwise IP-100,2013-10-24 16:12:00,
2013-10-24 12:17:00,41.0,29.0,29.86,West,270,8.0,15.0,61,0.00,,,0.00,Rainwise IP-100,2013-10-24 16:17:00,
2013-10-24 12:22:00,41.0,31.0,29.85,West,270,7.0,10.0,66,0.00,,,0.00,Rainwise IP-100,2013-10-24 16:22:00,
2013-10-24 12:27:00,41.0,31.0,29.85,WSW,247,6.0,16.0,65,0.00,,,0.00,Rainwise IP-100,2013-10-24 16:27:00,
2013-10-24 12:32:00,41.0,32.0,29.86,SW,225,7.0,12.0,68,0.00,,,0.00,Rainwise IP-100,2013-10-24 16:32:00,
2013-10-24 12:37:00,41.0,32.0,29.86,SW,225,10.0,15.0,70,0.00,,,0.00,Rainwise IP-100,2013-10-24 16:37:00,
2013-10-24 12:42:00,40.0,32.0,29.85,SSW,202,12.0,22.0,70,0.00,,,0.00,Rainwise IP-100,2013-10-24 16:42:00,
2013-10-24 12:47:00,40.0,32.0,29.85,SW,225,9.0,17.0,71,0.00,,,0.00,Rainwise IP-100,2013-10-24 16:47:00,
2013-10-24 12:52:00,40.0,32.0,29.85,SW,225,12.0,17.0,70,0.00,,,0.00,Rainwise IP-100,2013-10-24 16:52:00,
2013-10-24 12:57:00,40.0,32.0,29.85,SW,225,14.0,17.0,71,0.00,,,0.00,Rainwise IP-100,2013-10-24 16:57:00,
2013-10-24 13:02:00,40.0,32.0,29.85,SSW,202,10.0,19.0,71,0.00,,,0.00,Rainwise IP-100,2013-10-24 17:02:00,
2013-10-24 13:07:00,40.0,32.0,29.85,West,270,6.0,22.0,72,0.00,,,0.00,Rainwise IP-100,2013-10-24 17:07:00,
2013-10-24 13:12:00,40.0,32.0,29.84,SW,225,11.0,20.0,70,0.00,,,0.00,Rainwise IP-100,2013-10-24 17:12:00,
2013-10-24 13:17:00,40.0,31.0,29.84,WNW,292,15.0,30.0,69,0.00,,,0.00,Rainwise IP-100,2013-10-24 17:17:00,
2013-10-24 13:22:00,40.0,32.0,29.84,WSW,247,6.0,20.0,71,0.00,,,0.00,Rainwise IP-100,2013-10-24 17:22:00,
2013-10-24 13:27:00,41.0,33.0,29.84,SSW,202,8.0,17.0,72,0.00,,,0.00,Rainwise IP-100,2013-10-24 17:27:00,
2013-10-24 13:32:00,41.0,32.0,29.83,WSW,247,10.0,15.0,70,0.00,,,0.00,Rainwise IP-100,2013-10-24 17:32:00,
2013-10-24 13:37:00,41.0,32.0,29.83,WSW,247,7.0,17.0,70,0.00,,,0.00,Rainwise IP-100,2013-10-24 17:37:00,
2013-10-24 13:42:00,41.0,32.0,29.84,WSW,247,8.0,17.0,71,0.00,,,0.00,Rainwise IP-100,2013-10-24 17:42:00,
2013-10-24 13:47:00,41.0,32.0,29.84,WSW,247,10.0,20.0,71,0.00,,,0.00,Rainwise IP-100,2013-10-24 17:47:00,
2013-10-24 13:52:00,42.0,33.0,29.83,West,270,9.0,17.0,70,0.00,,,0.00,Rainwise IP-100,2013-10-24 17:52:00,
2013-10-24 13:57:00,42.0,33.0,29.83,SW,225,12.0,19.0,69,0.00,,,0.00,Rainwise IP-100,2013-10-24 17:57:00,
2013-10-24 14:02:00,41.0,32.0,29.82,WNW,292,10.0,25.0,69,0.00,,,0.00,Rainwise IP-100,2013-10-24 18:02:00,
2013-10-24 14:07:00,41.0,32.0,29.82,West,270,4.0,17.0,70,0.00,,,0.00,Rainwise IP-100,2013-10-24 18:07:00,
2013-10-24 14:12:00,41.0,32.0,29.84,NW,315,7.0,15.0,71,0.00,,,0.00,Rainwise IP-100,2013-10-24 18:12:00,
2013-10-24 14:17:00,42.0,33.0,29.84,WSW,247,9.0,10.0,69,0.00,,,0.00,Rainwise IP-100,2013-10-24 18:17:00,
2013-10-24 14:22:00,42.0,33.0,29.83,SSW,202,6.0,16.0,69,0.00,,,0.00,Rainwise IP-100,2013-10-24 18:22:00,
2013-10-24 14:27:00,42.0,32.0,29.83,WSW,247,10.0,16.0,67,0.00,,,0.00,Rainwise IP-100,2013-10-24 18:27:00,
2013-10-24 14:32:00,42.0,33.0,29.84,WSW,247,11.0,17.0,69,0.00,,,0.00,Rainwise IP-100,2013-10-24 18:32:00,
2013-10-24 14:37:00,42.0,33.0,29.84,West,270,12.0,16.0,70,0.00,,,0.00,Rainwise IP-100,2013-10-24 18:37:00,
2013-10-24 14:42:00,41.0,33.0,29.85,SW,225,10.0,17.0,72,0.00,,,0.00,Rainwise IP-100,2013-10-24 18:42:00,
2013-10-24 14:47:00,41.0,33.0,29.85,SW,225,7.0,17.0,74,0.00,,,0.00,Rainwise IP-100,2013-10-24 18:47:00,
2013-10-24 14:52:00,40.0,33.0,29.85,West,270,10.0,16.0,75,0.00,,,0.00,Rainwise IP-100,2013-10-24 18:52:00,
2013-10-24 14:57:00,40.0,35.0,29.85,SW,225,7.0,17.0,78,0.00,,,0.00,Rainwise IP-100,2013-10-24 18:57:00,
2013-10-24 15:02:00,40.0,33.0,29.85,WSW,247,10.0,18.0,75,0.00,,,0.00,Rainwise IP-100,2013-10-24 19:02:00,
2013-10-24 15:07:00,40.0,33.0,29.85,WSW,247,13.0,15.0,75,0.00,,,0.00,Rainwise IP-100,2013-10-24 19:07:00,
2013-10-24 15:12:00,40.0,33.0,29.85,WSW,247,12.0,18.0,74,0.00,,,0.00,Rainwise IP-100,2013-10-24 19:12:00,
2013-10-24 15:17:00,40.0,33.0,29.85,SW,225,7.0,17.0,75,0.00,,,0.00,Rainwise IP-100,2013-10-24 19:17:00,
2013-10-24 15:22:00,40.0,33.0,29.86,West,270,17.0,20.0,75,0.00,,,0.00,Rainwise IP-100,2013-10-24 19:22:00,
2013-10-24 15:27:00,40.0,35.0,29.86,SW,225,17.0,21.0,78,0.00,,,0.00,Rainwise IP-100,2013-10-24 19:27:00,
2013-10-24 15:32:00,39.0,33.0,29.86,West,270,11.0,19.0,80,0.00,,,0.00,Rainwise IP-100,2013-10-24 19:32:00,
2013-10-24 15:37:00,39.0,35.0,29.86,West,270,9.0,16.0,84,0.00,,,0.00,Rainwise IP-100,2013-10-24 19:37:00,
2013-10-24 15:42:00,38.0,35.0,29.88,SW,225,10.0,13.0,87,0.00,,,0.00,Rainwise IP-100,2013-10-24 19:42:00,
2013-10-24 15:47:00,38.0,36.0,29.88,SW,225,6.0,15.0,90,0.00,,,0.00,Rainwise IP-100,2013-10-24 19:47:00,
2013-10-24 15:52:00,37.0,35.0,29.89,West,270,7.0,14.0,93,0.06,,,0.01,Rainwise IP-100,2013-10-24 19:52:00,
2013-10-24 15:57:00,37.0,36.0,29.89,West,270,5.0,9.0,95,0.06,,,0.01,Rainwise IP-100,2013-10-24 19:57:00,
2013-10-24 16:02:00,37.0,36.0,29.90,North,360,4.0,10.0,96,0.06,,,0.02,Rainwise IP-100,2013-10-24 20:02:00,
2013-10-24 16:07:00,36.0,35.0,29.90,North,360,6.0,8.0,95,0.12,,,0.03,Rainwise IP-100,2013-10-24 20:07:00,
2013-10-24 16:12:00,36.0,35.0,29.91,North,360,3.0,7.0,95,0.18,,,0.05,Rainwise IP-100,2013-10-24 20:12:00,
2013-10-24 16:17:00,35.0,33.0,29.91,North,360,0.0,5.0,95,0.18,,,0.06,Rainwise IP-100,2013-10-24 20:17:00,
2013-10-24 16:22:00,35.0,33.0,29.91,North,360,2.0,2.0,95,0.12,,,0.07,Rainwise IP-100,2013-10-24 20:22:00,
2013-10-24 16:27:00,35.0,33.0,29.91,ENE,67,3.0,4.0,95,0.06,,,0.08,Rainwise IP-100,2013-10-24 20:27:00,
2013-10-24 16:32:00,34.0,33.0,29.91,ENE,67,4.0,5.0,95,0.06,,,0.08,Rainwise IP-100,2013-10-24 20:32:00,
2013-10-24 16:37:00,34.0,33.0,29.91,ESE,112,3.0,6.0,95,0.06,,,0.08,Rainwise IP-100,2013-10-24 20:37:00,
2013-10-24 16:42:00,34.0,33.0,29.90,South,180,5.0,6.0,95,0.06,,,0.09,Rainwise IP-100,2013-10-24 20:42:00,
2013-10-24 16:47:00,35.0,33.0,29.90,South,180,8.0,10.0,95,0.06,,,0.09,Rainwise IP-100,2013-10-24 20:47:00,
2013-10-24 16:52:00,35.0,33.0,29.90,South,180,7.0,9.0,95,0.06,,,0.10,Rainwise IP-100,2013-10-24 20:52:00,
2013-10-24 16:57:00,35.0,33.0,29.90,South,180,6.0,10.0,95,0.06,,,0.10,Rainwise IP-100,2013-10-24 20:57:00,
2013-10-24 17:02:00,35.0,33.0,29.91,WNW,292,1.0,7.0,95,0.00,,,0.10,Rainwise IP-100,2013-10-24 21:02:00,
2013-10-24 17:07:00,35.0,33.0,29.91,North,360,2.0,5.0,95,0.06,,,0.11,Rainwise IP-100,2013-10-24 21:07:00,
2013-10-24 17:12:00,35.0,33.0,29.92,East,90,2.0,5.0,95,0.12,,,0.12,Rainwise IP-100,2013-10-24 21:12:00,
2013-10-24 17:17:00,35.0,33.0,29.92,East,90,0.0,3.0,95,0.12,,,0.13,Rainwise IP-100,2013-10-24 21:17:00,
2013-10-24 17:22:00,35.0,33.0,29.92,East,90,0.0,3.0,95,0.12,,,0.14,Rainwise IP-100,2013-10-24 21:22:00,
2013-10-24 17:27:00,35.0,33.0,29.92,SE,135,6.0,7.0,95,0.12,,,0.15,Rainwise IP-100,2013-10-24 21:27:00,
2013-10-24 17:32:00,34.0,33.0,29.93,SE,135,5.0,6.0,95,0.12,,,0.16,Rainwise IP-100,2013-10-24 21:32:00,
2013-10-24 17:37:00,34.0,33.0,29.93,SE,135,6.0,8.0,95,0.06,,,0.16,Rainwise IP-100,2013-10-24 21:37:00,
2013-10-24 17:42:00,34.0,33.0,29.92,South,180,7.0,8.0,95,0.06,,,0.17,Rainwise IP-100,2013-10-24 21:42:00,
2013-10-24 17:47:00,35.0,33.0,29.92,SSE,157,5.0,9.0,95,0.06,,,0.17,Rainwise IP-100,2013-10-24 21:47:00,
2013-10-24 17:52:00,34.0,33.0,29.92,South,180,6.0,7.0,95,0.00,,,0.17,Rainwise IP-100,2013-10-24 21:52:00,
2013-10-24 17:57:00,35.0,33.0,29.92,South,180,7.0,7.0,95,0.00,,,0.17,Rainwise IP-100,2013-10-24 21:57:00,
2013-10-24 18:02:00,35.0,33.0,29.92,South,180,7.0,7.0,95,0.00,,,0.17,Rainwise IP-100,2013-10-24 22:02:00,
2013-10-24 18:07:00,35.0,33.0,29.92,SSE,157,0.0,9.0,95,0.06,,,0.18,Rainwise IP-100,2013-10-24 22:07:00,
2013-10-24 18:12:00,34.0,33.0,29.93,North,360,2.0,4.0,95,0.06,,,0.18,Rainwise IP-100,2013-10-24 22:12:00,
2013-10-24 18:17:00,34.0,33.0,29.93,North,360,0.0,3.0,95,0.06,,,0.19,Rainwise IP-100,2013-10-24 22:17:00,
2013-10-24 18:22:00,34.0,33.0,29.94,SE,135,6.0,7.0,95,0.06,,,0.19,Rainwise IP-100,2013-10-24 22:22:00,
2013-10-24 18:27:00,35.0,33.0,29.94,SE,135,5.0,7.0,95,0.06,,,0.20,Rainwise IP-100,2013-10-24 22:27:00,
2013-10-24 18:32:00,35.0,33.0,29.94,SE,135,6.0,6.0,95,0.06,,,0.20,Rainwise IP-100,2013-10-24 22:32:00,
2013-10-24 18:37:00,35.0,33.0,29.94,SSE,157,6.0,7.0,95,0.00,,,0.20,Rainwise IP-100,2013-10-24 22:37:00,
2013-10-24 18:42:00,35.0,33.0,29.95,ESE,112,3.0,6.0,95,0.00,,,0.20,Rainwise IP-100,2013-10-24 22:42:00,
2013-10-24 18:47:00,35.0,33.0,29.95,WSW,247,5.0,8.0,95,0.06,,,0.21,Rainwise IP-100,2013-10-24 22:47:00,
2013-10-24 18:52:00,36.0,35.0,29.94,WNW,292,6.0,15.0,95,0.06,,,0.21,Rainwise IP-100,2013-10-24 22:52:00,
2013-10-24 18:57:00,37.0,35.0,29.94,West,270,6.0,15.0,92,0.00,,,0.21,Rainwise IP-100,2013-10-24 22:57:00,
2013-10-24 19:02:00,37.0,36.0,29.94,NNW,337,12.0,12.0,95,0.00,,,0.21,Rainwise IP-100,2013-10-24 23:02:00,
2013-10-24 19:07:00,37.0,36.0,29.94,NW,315,3.0,15.0,95,0.00,,,0.21,Rainwise IP-100,2013-10-24 23:07:00,
2013-10-24 19:12:00,37.0,36.0,29.95,NNW,337,10.0,13.0,96,0.06,,,0.22,Rainwise IP-100,2013-10-24 23:12:00,
2013-10-24 19:17:00,36.0,35.0,29.95,NNW,337,1.0,17.0,95,0.12,,,0.23,Rainwise IP-100,2013-10-24 23:17:00,
2013-10-24 19:22:00,36.0,35.0,29.96,NE,45,2.0,7.0,95,0.06,,,0.23,Rainwise IP-100,2013-10-24 23:22:00,
2013-10-24 19:27:00,35.0,33.0,29.96,North,360,6.0,9.0,95,0.06,,,0.24,Rainwise IP-100,2013-10-24 23:27:00,
2013-10-24 19:32:00,36.0,35.0,29.96,WNW,292,6.0,10.0,95,0.06,,,0.24,Rainwise IP-100,2013-10-24 23:32:00,
2013-10-24 19:37:00,36.0,35.0,29.96,WNW,292,10.0,10.0,95,0.00,,,0.24,Rainwise IP-100,2013-10-24 23:37:00,
2013-10-24 19:42:00,36.0,35.0,29.97,NW,315,16.0,22.0,95,0.00,,,0.24,Rainwise IP-100,2013-10-24 23:42:00,
2013-10-24 19:47:00,36.0,35.0,29.97,NW,315,12.0,19.0,93,0.00,,,0.24,Rainwise IP-100,2013-10-24 23:47:00,
2013-10-24 19:52:00,36.0,33.0,29.97,NW,315,6.0,16.0,92,0.00,,,0.24,Rainwise IP-100,2013-10-24 23:52:00,
2013-10-24 19:57:00,36.0,33.0,29.97,NW,315,9.0,24.0,92,0.06,,,0.25,Rainwise IP-100,2013-10-24 23:57:00,
2013-10-24 20:02:00,36.0,33.0,29.97,NW,315,7.0,17.0,90,0.06,,,0.25,Rainwise IP-100,2013-10-25 00:02:00,
2013-10-24 20:07:00,36.0,33.0,29.97,NNW,337,10.0,12.0,91,0.00,,,0.25,Rainwise IP-100,2013-10-25 00:07:00,
2013-10-24 20:12:00,36.0,32.0,29.98,NW,315,7.0,12.0,88,0.00,,,0.25,Rainwise IP-100,2013-10-25 00:12:00,
2013-10-24 20:17:00,36.0,33.0,29.98,North,360,6.0,12.0,90,0.00,,,0.25,Rainwise IP-100,2013-10-25 00:17:00,
2013-10-24 20:22:00,36.0,33.0,29.98,NW,315,6.0,14.0,90,0.00,,,0.25,Rainwise IP-100,2013-10-25 00:22:00,
2013-10-24 20:27:00,36.0,33.0,29.98,NW,315,7.0,10.0,90,0.00,,,0.25,Rainwise IP-100,2013-10-25 00:27:00,
2013-10-24 20:32:00,36.0,33.0,29.98,NW,315,8.0,11.0,89,0.00,,,0.25,Rainwise IP-100,2013-10-25 00:32:00,
2013-10-24 20:37:00,36.0,33.0,29.98,NE,45,1.0,11.0,92,0.00,,,0.25,Rainwise IP-100,2013-10-25 00:37:00,
2013-10-24 20:42:00,36.0,33.0,29.98,NW,315,6.0,8.0,91,0.00,,,0.25,Rainwise IP-100,2013-10-25 00:42:00,
2013-10-24 20:47:00,36.0,32.0,29.98,NW,315,13.0,13.0,87,0.00,,,0.25,Rainwise IP-100,2013-10-25 00:47:00,
2013-10-24 20:52:00,36.0,32.0,29.98,NW,315,4.0,19.0,87,0.00,,,0.25,Rainwise IP-100,2013-10-25 00:52:00,
2013-10-24 20:57:00,36.0,32.0,29.98,NE,45,0.0,8.0,88,0.00,,,0.25,Rainwise IP-100,2013-10-25 00:57:00,
2013-10-24 21:02:00,36.0,32.0,29.98,NW,315,7.0,13.0,86,0.00,,,0.25,Rainwise IP-100,2013-10-25 01:02:00,
2013-10-24 21:07:00,36.0,32.0,29.98,West,270,1.0,11.0,85,0.00,,,0.25,Rainwise IP-100,2013-10-25 01:07:00,
2013-10-24 21:12:00,36.0,32.0,29.99,East,90,3.0,10.0,88,0.00,,,0.25,Rainwise IP-100,2013-10-25 01:12:00,
2013-10-24 21:17:00,36.0,33.0,29.99,North,360,0.0,5.0,89,0.00,,,0.25,Rainwise IP-100,2013-10-25 01:17:00,
2013-10-24 21:22:00,35.0,32.0,29.99,East,90,5.0,5.0,90,0.00,,,0.25,Rainwise IP-100,2013-10-25 01:22:00,
2013-10-24 21:27:00,36.0,33.0,29.99,East,90,3.0,8.0,89,0.00,,,0.25,Rainwise IP-100,2013-10-25 01:27:00,
2013-10-24 21:32:00,35.0,32.0,29.99,East,90,7.0,10.0,90,0.00,,,0.25,Rainwise IP-100,2013-10-25 01:32:00,
2013-10-24 21:37:00,35.0,32.0,29.99,ENE,67,3.0,7.0,88,0.00,,,0.25,Rainwise IP-100,2013-10-25 01:37:00,
2013-10-24 21:42:00,35.0,32.0,30.00,NE,45,4.0,4.0,91,0.00,,,0.25,Rainwise IP-100,2013-10-25 01:42:00,
2013-10-24 21:47:00,35.0,33.0,30.00,East,90,5.0,6.0,93,0.00,,,0.25,Rainwise IP-100,2013-10-25 01:47:00,
2013-10-24 21:52:00,34.0,33.0,30.00,East,90,1.0,5.0,95,0.00,,,0.25,Rainwise IP-100,2013-10-25 01:52:00,
2013-10-24 21:57:00,34.0,33.0,30.00,ENE,67,1.0,4.0,95,0.00,,,0.25,Rainwise IP-100,2013-10-25 01:57:00,
2013-10-24 22:02:00,35.0,33.0,30.00,ESE,112,4.0,5.0,94,0.00,,,0.25,Rainwise IP-100,2013-10-25 02:02:00,
2013-10-24 22:07:00,34.0,33.0,30.00,WNW,292,3.0,6.0,94,0.00,,,0.25,Rainwise IP-100,2013-10-25 02:07:00,
2013-10-24 22:12:00,35.0,33.0,30.00,ESE,112,2.0,4.0,94,0.00,,,0.25,Rainwise IP-100,2013-10-25 02:12:00,
2013-10-24 22:17:00,35.0,32.0,30.00,ESE,112,0.0,6.0,90,0.00,,,0.25,Rainwise IP-100,2013-10-25 02:17:00,
2013-10-24 22:22:00,35.0,32.0,30.01,NW,315,7.0,8.0,92,0.00,,,0.25,Rainwise IP-100,2013-10-25 02:22:00,
2013-10-24 22:27:00,36.0,32.0,30.01,West,270,7.0,10.0,88,0.00,,,0.25,Rainwise IP-100,2013-10-25 02:27:00,
2013-10-24 22:32:00,35.0,32.0,30.00,NW,315,5.0,8.0,90,0.00,,,0.25,Rainwise IP-100,2013-10-25 02:32:00,
2013-10-24 22:37:00,35.0,32.0,30.00,NW,315,5.0,8.0,90,0.00,,,0.25,Rainwise IP-100,2013-10-25 02:37:00,
2013-10-24 22:42:00,35.0,32.0,30.01,NW,315,4.0,7.0,91,0.00,,,0.25,Rainwise IP-100,2013-10-25 02:42:00,
2013-10-24 22:47:00,35.0,32.0,30.01,NW,315,4.0,13.0,90,0.00,,,0.25,Rainwise IP-100,2013-10-25 02:47:00,
2013-10-24 22:52:00,35.0,32.0,30.01,NNW,337,0.0,7.0,91,0.00,,,0.25,Rainwise IP-100,2013-10-25 02:52:00,
2013-10-24 22:57:00,35.0,33.0,30.01,North,360,0.0,2.0,93,0.00,,,0.25,Rainwise IP-100,2013-10-25 02:57:00,
2013-10-24 23:02:00,35.0,33.0,30.01,SW,225,3.0,3.0,93,0.00,,,0.25,Rainwise IP-100,2013-10-25 03:02:00,
2013-10-24 23:07:00,35.0,32.0,30.01,NW,315,9.0,9.0,92,0.00,,,0.25,Rainwise IP-100,2013-10-25 03:07:00,
2013-10-24 23:12:00,35.0,32.0,30.01,SW,225,4.0,12.0,90,0.00,,,0.25,Rainwise IP-100,2013-10-25 03:12:00,
2013-10-24 23:17:00,35.0,32.0,30.01,NW,315,7.0,7.0,90,0.00,,,0.25,Rainwise IP-100,2013-10-25 03:17:00,
2013-10-24 23:22:00,35.0,32.0,30.01,West,270,6.0,7.0,90,0.00,,,0.25,Rainwise IP-100,2013-10-25 03:22:00,
2013-10-24 23:27:00,36.0,33.0,30.01,NW,315,6.0,15.0,89,0.00,,,0.25,Rainwise IP-100,2013-10-25 03:27:00,
2013-10-24 23:32:00,35.0,32.0,30.01,NW,315,7.0,9.0,90,0.00,,,0.25,Rainwise IP-100,2013-10-25 03:32:00,
2013-10-24 23:37:00,35.0,32.0,30.01,NNW,337,2.0,8.0,90,0.00,,,0.25,Rainwise IP-100,2013-10-25 03:37:00,
2013-10-24 23:42:00,35.0,32.0,30.02,NNW,337,3.0,4.0,90,0.00,,,0.25,Rainwise IP-100,2013-10-25 03:42:00,
2013-10-24 23:47:00,35.0,32.0,30.02,NNW,337,0.0,5.0,92,0.00,,,0.25,Rainwise IP-100,2013-10-25 03:47:00,
2013-10-24 23:52:00,35.0,33.0,30.02,NE,45,3.0,5.0,94,0.00,,,0.25,Rainwise IP-100,2013-10-25 03:52:00,
2013-10-24 23:57:00,35.0,33.0,30.02,NW,315,0.0,7.0,93,0.00,,,0.25,Rainwise IP-100,2013-10-25 03:57:00,